Hourly Weather Dzierzgowo

Today, 6 May, Thursday

Time Temperature Precipitation Wind Pressure Humidity
00:00 +3°C° 0 mm 6 mps 736 mmHg 93%
01:00 +3°C° 0 mm 6 mps 736 mmHg 93%
02:00 +2°C° 0 mm 7 mps 736 mmHg 92%
03:00 +2°C° 0 mm 7 mps 737 mmHg 91%
04:00 0°C° 0 mm 7 mps 737 mmHg 90%
05:00 0°C° 0 mm 8 mps 738 mmHg 87%
06:00 0°C° 0 mm 8 mps 738 mmHg 84%
07:00 0°C° 0 mm 9 mps 739 mmHg 80%
08:00 +2°C° 0 mm 9 mps 739 mmHg 74%
09:00 +3°C° 0 mm 9 mps 739 mmHg 68%
10:00 +5°C° 0 mm 10 mps 740 mmHg 62%
11:00 +6°C° 0 mm 10 mps 740 mmHg 57%
12:00 +7°C° 0 mm 10 mps 740 mmHg 52%
13:00 +8°C° 0 mm 10 mps 740 mmHg 47%
14:00 +9°C° 0 mm 8 mps 740 mmHg 50%
15:00 +10°C° 0 mm 7 mps 740 mmHg 52%
16:00 +10°C° 0 mm 6 mps 740 mmHg 55%
17:00 +8°C° 0.1 mm 5 mps 740 mmHg 63%
18:00 +7°C° 0.1 mm 4 mps 740 mmHg 70%
19:00 +7°C° 0.1 mm 3 mps 740 mmHg 78%
20:00 +6°C° 0.1 mm 4 mps 739 mmHg 80%
21:00 +6°C° 0.1 mm 4 mps 739 mmHg 83%
22:00 +6°C° 0.1 mm 5 mps 739 mmHg 86%
23:00 +6°C° 0.2 mm 5 mps 739 mmHg 87%

Tomorrow, 7 May, Friday

Time Temperature Precipitation Wind Pressure Humidity
00:00 +5°C° 0.2 mm 6 mps 738 mmHg 88%
01:00 +5°C° 0.2 mm 6 mps 738 mmHg 90%
02:00 +5°C° 0.3 mm 5 mps 738 mmHg 91%
03:00 +5°C° 0.3 mm 5 mps 738 mmHg 93%
04:00 +4°C° 0.3 mm 4 mps 738 mmHg 94%
05:00 +5°C° 0.1 mm 4 mps 739 mmHg 91%
06:00 +5°C° 0.1 mm 4 mps 739 mmHg 88%
07:00 +6°C° 0.1 mm 4 mps 740 mmHg 85%
08:00 +6°C° 0.1 mm 5 mps 740 mmHg 78%
09:00 +7°C° 0.1 mm 5 mps 740 mmHg 71%
10:00 +8°C° 0.1 mm 6 mps 741 mmHg 64%
11:00 +9°C° 0.1 mm 6 mps 741 mmHg 58%
12:00 +9°C° 0.1 mm 7 mps 741 mmHg 52%
13:00 +10°C° 0.1 mm 7 mps 742 mmHg 47%
14:00 +10°C° 0 mm 6 mps 742 mmHg 49%
15:00 +10°C° 0 mm 6 mps 743 mmHg 50%
16:00 +9°C° 0 mm 5 mps 743 mmHg 52%
17:00 +8°C° 0 mm 4 mps 744 mmHg 59%
18:00 +7°C° 0 mm 3 mps 744 mmHg 65%
19:00 +6°C° 0 mm 2 mps 745 mmHg 72%
20:00 +5°C° 0 mm 2 mps 745 mmHg 74%
21:00 +4°C° 0 mm 2 mps 745 mmHg 76%
22:00 +2°C° 0 mm 3 mps 746 mmHg 79%
23:00 +2°C° 0 mm 3 mps 746 mmHg 82%

Day after tomorrow, 8 May, Saturday

Time Temperature Precipitation Wind Pressure Humidity
00:00 +2°C° 0 mm 3 mps 746 mmHg 84%
01:00 +1°C° 0 mm 3 mps 746 mmHg 87%
02:00 +2°C° 0 mm 3 mps 746 mmHg 88%
03:00 +2°C° 0 mm 3 mps 746 mmHg 88%
04:00 +2°C° 0 mm 3 mps 746 mmHg 88%
05:00 +3°C° 0 mm 3 mps 746 mmHg 85%
06:00 +4°C° 0 mm 3 mps 746 mmHg 81%
07:00 +6°C° 0 mm 4 mps 746 mmHg 77%
08:00 +7°C° 0 mm 4 mps 745 mmHg 73%
09:00 +8°C° 0 mm 5 mps 745 mmHg 68%
10:00 +9°C° 0 mm 5 mps 745 mmHg 64%
11:00 +8°C° 0.3 mm 5 mps 744 mmHg 73%
12:00 +7°C° 0.3 mm 4 mps 744 mmHg 83%
13:00 +6°C° 0.3 mm 4 mps 744 mmHg 92%
14:00 +6°C° 0.3 mm 4 mps 743 mmHg 93%
15:00 +6°C° 0.3 mm 4 mps 742 mmHg 94%
16:00 +6°C° 0.3 mm 4 mps 742 mmHg 95%
17:00 +6°C° 0.4 mm 4 mps 741 mmHg 95%
18:00 +8°C° 0.4 mm 3 mps 741 mmHg 96%
19:00 +8°C° 0.4 mm 3 mps 741 mmHg 97%
20:00 +8°C° 0.1 mm 3 mps 740 mmHg 97%
21:00 +9°C° 0.1 mm 3 mps 740 mmHg 97%
22:00 +10°C° 0.1 mm 3 mps 740 mmHg 97%
23:00 +10°C° 0 mm 3 mps 739 mmHg 96%

9 May, Sunday

Time Temperature Precipitation Wind Pressure Humidity
00:00 +10°C° 0 mm 3 mps 739 mmHg 96%
01:00 +10°C° 0 mm 3 mps 739 mmHg 96%

10 May, Monday

Time Temperature Precipitation Wind Pressure Humidity

11 May, Tuesday

Time Temperature Precipitation Wind Pressure Humidity
Show more

We Need Your Consent

Meteoprog and our Service Providers may store and access personal data such as cookies, device identifiers or other similar technologies on your device and process such data to personalise content and ads, as well as provide social media features and to analyse the traffic.

  • Store and/or access information on your device

    Cookies, device identifiers or other information can be stored or accessed on your device for the purposes indicated above.

  • Personalised ads and content, ad and content measurement, audience insights, and products development

    Ads and content can be personalised based on a profile. More data can be added to better personalise ads and content. Ad and content performance can be measured. Insights about the audience who saw the ads and content can be derived. Such data can be used to develop or improve user’s experience, systems and software.

By clicking ‘I Agree’ you will allow the use of indicated cookies, device identifiers, web beacons or other similar technologies. Your settings can be changed in the browser on your device.

For certain purposes, legitimate interests may be relied on, rather than consent. You can read more about this in our Privacy and Cookie Policy.